Tracking 35331 objects as of 16-Sep-2026
HD Live streaming from Space Station
objects crossing your sky now

IRIDIUM 24

Track IRIDIUM 24 now!
10-day predictions
IRIDIUM 24 is classified as:


NORAD ID: 25105
Int'l Code: 1997-082B
Launch date: December 20, 1997
Source: United States (US)
Launch site: AIR FORCE WESTERN TEST RANGE (AFWTR)
Your satellite tracking list
Your tracking list is empty




NASA's NSSDC Master Catalog

Two Line Element Set (TLE):
1 25105U 97082B   26258.68656504  .00000287  00000-0  80402-4 0  9997
2 25105  86.3859 246.9953 0011972  23.2894 336.8847 14.42569611508876
Source of the keplerian elements: AFSPC